Location: Franzen
(48.6167°N, 15.3833°E)
Time: 13:13:52
(UTC+00:00)

Cosmos 676 Rocket - Pass Details

Date: 22 April 2021
Orbit: 755 x 783 km, 74.0° (Epoch: 16 May)

Event Time Altitude Azimuth Distance (km) Brightness Sun altitude
Exits shadow 19:37:14 10° 177° (S) 2,279 6.1 -14.7°
Maximum altitude 19:42:08 46° 105° (ESE) 1,015 4.2 -15.3°
Drops below altitude 10° 19:47:04 10° 34° (NNE) 2,291 6.6 -15.9°
Sets 19:49:30 0° 28° (NNE) 3,221 7.4 -16.2°
